FW4300 Weather Reports


time (UTC)temp
F
wind
direction
speed
knots
gust
knots
rain 1hr
in
rain 24hr
in
rain mn
in
humidity
%
barometer
mb
20260502232545 79 108 0.0 0.0 0.00 0.00 0.00 63 1016.9
20260502232045 79 121 0.0 0.0 0.00 0.00 0.00 63 1016.7
20260502231545 80 84 0.0 0.0 0.00 0.00 0.00 63 1016.7
20260502231045 80 132 0.0 0.0 0.00 0.00 0.00 63 1016.7
20260502230545 80 135 0.0 0.0 0.00 0.00 0.00 63 1016.6
20260502230044 80 157 0.0 0.0 0.00 0.00 0.00 63 1016.6
20260502225547 80 130 0.0 0.0 0.00 0.00 0.00 63 1016.5
20260502225044 81 115 0.0 0.0 0.00 0.00 0.00 62 1016.6
20260502224546 81 126 0.0 0.0 0.00 0.00 0.00 62 1016.5
20260502224043 82 119 0.0 0.0 0.00 0.00 0.00 61 1016.5
20260502223543 82 171 0.0 0.0 0.00 0.00 0.00 60 1016.4
20260502223052 82 115 0.0 0.0 0.00 0.00 0.00 60 1016.3
20260502222543 82 160 0.0 0.0 0.00 0.00 0.00 60 1016.3
20260502222043 83 155 0.0 0.0 0.00 0.00 0.00 59 1016.3
20260502221544 83 160 0.0 0.0 0.00 0.00 0.00 60 1016.3
20260502221041 83 175 0.0 0.0 0.00 0.00 0.00 60 1016.3
20260502220541 83 124 0.0 0.0 0.00 0.00 0.00 59 1016.2
20260502220042 83 122 0.0 0.0 0.00 0.00 0.00 59 1016.1
20260502215542 83 148 0.0 0.0 0.00 0.00 0.00 59 1016.0
20260502215042 83 197 0.0 0.0 0.00 0.00 0.00 59 1016.0
20260502214602 84 160 0.0 0.0 0.00 0.00 0.00 58 1015.8
20260502214039 84 247 0.0 0.0 0.00 0.00 0.00 59 1015.7
20260502213543 84 166 0.0 0.0 0.00 0.00 0.00 58 1015.7
20260502213053 84 207 0.0 0.0 0.00 0.00 0.00 58 1015.7
20260502212540 84 143 0.0 0.0 0.00 0.00 0.00 58 1015.5
20260502212039 84 143 0.0 0.0 0.00 0.00 0.00 58 1015.4
20260502211538 84 143 0.0 0.0 0.00 0.00 0.00 57 1015.4
20260502211039 84 183 0.0 0.0 0.00 0.00 0.00 57 1015.3
20260502210538 84 125 0.0 0.0 0.00 0.00 0.00 57 1015.4
20260502210038 85 193 0.0 0.0 0.00 0.00 0.00 57 1015.4
20260502205537 85 141 0.0 0.0 0.00 0.00 0.00 56 1015.4
20260502205037 85 160 0.0 0.0 0.00 0.00 0.00 57 1015.4
20260502204540 84 129 0.0 0.0 0.00 0.00 0.00 58 1015.4
20260502204036 84 192 0.0 0.0 0.00 0.00 0.00 57 1015.4
20260502203535 84 116 0.0 0.0 0.00 0.00 0.00 57 1015.5
20260502203100 84 96 0.0 0.0 0.00 0.00 0.00 57 1015.6
20260502202535 85 117 0.0 0.0 0.00 0.00 0.00 56 1015.5
20260502202037 85 130 0.0 0.0 0.00 0.00 0.00 57 1015.5
20260502201537 85 168 0.0 0.0 0.00 0.00 0.00 56 1015.6
20260502201034 85 138 0.0 0.0 0.00 0.00 0.00 56 1015.5
20260502200535 85 139 0.0 0.0 0.00 0.00 0.00 56 1015.5
20260502200036 85 174 0.0 0.0 0.00 0.00 0.00 57 1015.5
20260502195533 85 152 0.0 0.0 0.00 0.00 0.00 57 1015.5
20260502195032 85 148 0.0 0.0 0.00 0.00 0.00 56 1015.6
20260502194532 85 175 0.0 0.0 0.00 0.00 0.00 55 1015.5
20260502194031 85 167 0.0 0.0 0.00 0.00 0.00 56 1015.7
20260502193532 86 169 0.0 0.0 0.00 0.00 0.00 55 1015.7
20260502193031 86 205 0.0 0.0 0.00 0.00 0.00 55 1015.7
20260502192530 85 171 0.0 0.0 0.00 0.00 0.00 56 1015.8
20260502192029 85 173 0.0 0.0 0.00 0.00 0.00 56 1015.8
20260502191528 85 142 0.0 0.0 0.00 0.00 0.00 55 1015.8
20260502191028 85 110 0.0 0.0 0.00 0.00 0.00 55 1015.8
20260502190528 85 188 0.0 0.0 0.00 0.00 0.00 56 1015.8
20260502190028 85 156 0.0 0.0 0.00 0.00 0.00 54 1015.9
20260502185527 86 124 0.0 0.0 0.00 0.00 0.00 54 1015.9
20260502185029 86 122 0.0 0.0 0.00 0.00 0.00 54 1016.0
20260502184528 87 151 0.0 0.0 0.00 0.00 0.00 52 1016.0
20260502184026 86 181 0.0 0.0 0.00 0.00 0.00 52 1016.2
20260502183526 86 218 0.0 0.0 0.00 0.00 0.00 50 1016.1
20260502183025 86 120 0.0 0.0 0.00 0.00 0.00 51 1016.1
20260502182524 86 207 0.0 0.0 0.00 0.00 0.00 53 1016.1
20260502182023 86 113 0.0 0.0 0.00 0.00 0.00 54 1016.2
20260502181524 85 134 0.0 0.0 0.00 0.00 0.00 55 1016.2
20260502181023 86 104 0.0 0.0 0.00 0.00 0.00 56 1016.3
20260502180523 86 128 0.0 0.0 0.00 0.00 0.00 57 1016.4
20260502164015 85 149 0.0 0.0 0.00 0.00 0.00 61 1017.8
20260502163515 85 152 0.0 0.0 0.00 0.00 0.00 61 1017.8
20260502163033 85 177 0.0 0.0 0.00 0.00 0.00 60 1017.8
20260502162615 85 199 0.0 0.0 0.00 0.00 0.00 60 1017.9
20260502162016 86 127 0.0 0.0 0.00 0.00 0.00 60 1017.9
20260502161523 86 222 0.0 0.0 0.00 0.00 0.00 60 1017.8
20260502161014 87 191 0.0 0.0 0.00 0.00 0.00 58 1018.0
20260502160516 87 131 0.0 0.0 0.00 0.00 0.00 58 1017.9
20260502152008 86 193 0.0 0.0 0.00 0.00 0.00 61 1018.3
20260502151508 86 129 0.0 0.0 0.00 0.00 0.00 62 1018.3
20260502151008 85 115 0.0 0.0 0.00 0.00 0.00 62 1018.3
20260502150508 86 176 0.0 0.0 0.00 0.00 0.00 61 1018.3
20260502130554 81 153 0.0 0.0 0.00 0.00 0.00 67 1017.8
20260502123546 80 98 0.0 0.0 0.00 0.00 0.00 69 1017.6
20260502123109 80 108 0.0 0.0 0.00 0.00 0.00 69 1017.4
20260502122545 80 79 0.0 0.0 0.00 0.00 0.00 68 1017.4
20260502122047 80 78 0.0 0.0 0.00 0.00 0.00 69 1017.4
20260502121544 80 92 0.0 0.0 0.00 0.00 0.00 69 1017.4
20260502121044 79 206 0.0 0.0 0.00 0.00 0.00 69 1017.3
20260502120544 80 117 0.0 0.0 0.00 0.00 0.00 69 1017.3
20260502115542 80 122 0.0 0.0 0.00 0.00 0.00 69 1017.1
20260502115043 80 170 0.0 0.0 0.00 0.00 0.00 69 1017.0
20260502114541 80 162 0.0 0.0 0.00 0.00 0.00 69 1017.0
20260502114042 80 150 0.0 0.0 0.00 0.00 0.00 69 1017.0
20260502113538 79 123 0.0 0.0 0.00 0.00 0.00 70 1016.9
20260502113047 78 165 0.0 0.0 0.00 0.00 0.00 71 1017.0
20260502112535 77 158 0.0 0.0 0.00 0.00 0.00 78 1016.9
20260502112035 75 306 0.0 0.0 0.00 0.00 0.00 80 1016.8
20260502111536 74 306 0.0 0.0 0.00 0.00 0.00 80 1016.9
20260502111032 73 306 0.0 0.0 0.00 0.00 0.00 80 1016.8
20260502110532 73 306 0.0 0.0 0.00 0.00 0.00 80 1016.8
20260502110030 73 315 0.0 0.0 0.00 0.00 0.00 80 1016.7
20260502105530 73 326 0.0 0.0 0.00 0.00 0.00 80 1016.6
20260502105030 73 289 0.0 0.0 0.00 0.00 0.00 81 1016.6
20260502104532 73 289 0.0 0.0 0.00 0.00 0.00 81 1016.5
20260502104028 72 309 0.0 0.0 0.00 0.00 0.00 81 1016.4
20260502103527 72 330 0.0 0.0 0.00 0.00 0.00 81 1016.5
20260502103026 71 328 0.0 0.0 0.00 0.00 0.00 81 1016.4
20260502102525 0 0.0 0.0 0.00 0.00 0.00 1016.3
20260502102023 0 0.0 0.0 0.00 0.00 0.00 1016.4
20260502101522 0 0.0 0.0 0.00 0.00 0.00 1016.3
20260502101021 0 0.0 0.0 0.00 0.00 0.00 1016.3
20260502100519 0 0.0 0.0 0.00 0.00 0.00 1016.2
20260502091505 0 0.0 0.0 0.00 0.00 0.00 1015.6
20260502091005 0 0.0 0.0 0.00 0.00 0.00 1015.5
20260502090501 0 0.0 0.0 0.00 0.00 0.00 1015.4
20260502090106 0 0.0 0.0 0.00 0.00 0.00 1015.5
20260502071037 72 292 0.0 0.0 0.00 0.00 0.00 77 1015.3
20260502070536 72 280 0.0 0.0 0.00 0.00 0.00 76 1015.3
20260502070039 73 279 0.0 0.0 0.00 0.00 0.00 76 1015.3
20260502065535 73 277 0.0 0.0 0.00 0.00 0.00 76 1015.3
20260502065034 73 14 0.0 0.0 0.00 0.00 0.00 77 1015.3
20260502064546 73 14 0.0 0.0 0.00 0.00 0.00 77 1015.4
20260502064033 73 14 0.0 0.0 0.00 0.00 0.00 76 1015.4
20260502063532 72 333 0.0 0.0 0.00 0.00 0.00 76 1015.4
20260502063034 72 328 0.0 0.0 0.00 0.00 0.00 76 1015.4
20260502062532 72 312 0.0 0.0 0.00 0.00 0.00 76 1015.4
20260502062031 72 315 0.0 0.0 0.00 0.00 0.00 76 1015.4
20260502061532 72 315 0.0 0.0 0.00 0.00 0.00 75 1015.4
20260502061030 72 300 0.0 0.0 0.00 0.00 0.00 75 1015.4
20260502060529 72 300 0.0 0.0 0.00 0.00 0.00 75 1015.5
20260502060032 73 302 0.0 0.0 0.00 0.00 0.00 75 1015.5
20260502055529 73 299 0.0 0.0 0.00 0.00 0.00 75 1015.4
20260502055030 73 299 0.0 0.0 0.00 0.00 0.00 75 1015.4
20260502054534 73 299 0.0 0.0 0.00 0.00 0.00 75 1015.5
20260502054026 72 319 0.0 0.0 0.00 0.00 0.00 74 1015.5
20260502053525 73 322 0.0 0.0 0.00 0.00 0.00 74 1015.5
20260502053025 73 330 0.0 0.0 0.00 0.00 0.00 74 1015.5
20260502052525 73 330 0.0 0.0 0.00 0.00 0.00 74 1015.6
20260502052025 73 330 0.0 0.0 0.00 0.00 0.00 74 1015.7
20260502051529 73 330 0.0 0.0 0.00 0.00 0.00 74 1015.7
20260502051021 73 330 0.0 0.0 0.00 0.00 0.00 74 1015.8
20260502050521 73 356 0.0 0.0 0.00 0.00 0.00 74 1015.9
20260502050021 73 290 0.0 0.0 0.00 0.00 0.00 74 1015.9
20260502045523 73 274 0.0 0.0 0.00 0.00 0.00 74 1016.0
20260502045020 73 271 0.0 0.0 0.00 0.00 0.00 74 1016.0
20260502044519 73 271 0.0 0.0 0.00 0.00 0.00 74 1016.0
20260502044017 73 271 0.0 0.0 0.00 0.00 0.00 74 1016.1
20260502043517 73 259 0.0 0.0 0.00 0.00 0.00 73 1016.1
20260502043016 74 259 0.0 0.0 0.00 0.00 0.00 73 1016.3
20260502042516 74 259 0.0 0.0 0.00 0.00 0.00 73 1016.3
20260502042015 74 259 0.0 0.0 0.00 0.00 0.00 73 1016.4
20260502041515 74 259 0.0 0.0 0.00 0.00 0.00 73 1016.3
20260502041014 74 259 0.0 0.0 0.00 0.00 0.00 73 1016.4
20260502040516 74 259 0.0 0.0 0.00 0.00 0.00 73 1016.4
20260502040012 74 259 0.0 0.0 0.00 0.00 0.00 73 1016.5
20260502035514 74 259 0.0 0.0 0.00 0.00 0.00 73 1016.5
20260502035012 74 259 0.0 0.0 0.00 0.00 0.00 73 1016.6
20260502034511 74 241 0.0 0.0 0.00 0.00 0.00 72 1016.6
20260502034013 74 241 0.0 0.0 0.00 0.00 0.00 71 1016.6
20260502033511 74 241 0.0 0.0 0.00 0.00 0.00 70 1016.5
20260502033009 75 241 0.0 0.0 0.00 0.00 0.00 69 1016.5
20260502032509 75 234 0.0 0.0 0.00 0.00 0.00 68 1016.6
20260502032009 76 221 0.0 0.0 0.00 0.00 0.00 68 1016.6
20260502031509 76 213 0.0 0.0 0.00 0.00 0.00 68 1016.5
20260502031008 76 213 0.0 0.0 0.00 0.00 0.00 68 1016.6
20260502030509 76 213 0.0 0.0 0.00 0.00 0.00 68 1016.6
20260502030008 76 218 0.0 0.0 0.00 0.00 0.00 68 1016.5
20260502025517 76 219 0.0 0.0 0.00 0.00 0.00 68 1016.5
20260502025007 76 219 0.0 0.0 0.00 0.00 0.00 68 1016.6
20260502024509 76 208 0.0 0.0 0.00 0.00 0.00 68 1016.5
20260502024007 76 203 0.0 0.0 0.00 0.00 0.00 68 1016.5
20260502023507 76 203 0.0 0.0 0.00 0.00 0.00 68 1016.4
20260502023008 76 203 0.0 0.0 0.00 0.00 0.00 68 1016.4
20260502022506 76 212 0.0 0.0 0.00 0.00 0.00 68 1016.3
20260502022008 77 228 0.0 0.0 0.00 0.00 0.00 67 1016.1
20260502021505 77 211 0.0 0.0 0.00 0.00 0.00 67 1016.1
20260502021007 77 211 0.0 0.0 0.00 0.00 0.00 67 1016.1
20260502020506 77 210 0.0 0.0 0.00 0.00 0.00 67 1016.1
20260502020006 77 169 0.0 0.0 0.00 0.00 0.00 67 1016.1
20260502015510 77 133 0.0 0.0 0.00 0.00 0.00 67 1016.1
20260502015006 77 156 0.0 0.0 0.00 0.00 0.00 67 1016.0
20260502014508 77 167 0.0 0.0 0.00 0.00 0.00 66 1015.9
20260502014004 77 116 0.0 0.0 0.00 0.00 0.00 66 1016.0
20260502013504 77 170 0.0 0.0 0.00 0.00 0.00 66 1015.9
20260502013009 77 124 0.0 0.0 0.00 0.00 0.00 66 1015.8
20260502012505 77 205 0.0 0.0 0.00 0.00 0.00 66 1015.7
20260502012005 77 201 0.0 0.0 0.00 0.00 0.00 66 1015.7
20260502011504 77 171 0.0 0.0 0.00 0.00 0.00 66 1015.7
20260502011004 77 165 0.0 0.0 0.00 0.00 0.00 66 1015.6
20260502010511 77 146 0.0 0.0 0.00 0.00 0.00 66 1015.6
20260502010012 77 161 0.0 0.0 0.00 0.00 0.00 66 1015.6
20260502005503 77 134 0.0 0.0 0.00 0.00 0.00 66 1015.5
20260502005005 77 148 0.0 0.0 0.00 0.00 0.00 66 1015.6
20260502004508 78 160 0.0 0.0 0.00 0.00 0.00 66 1015.6
20260502004006 78 136 0.0 0.0 0.00 0.00 0.00 66 1015.5
20260502003502 78 136 0.0 0.0 0.00 0.00 0.00 66 1015.4
20260502003002 78 147 0.0 0.0 0.00 0.00 0.00 66 1015.4
20260502002502 78 134 0.0 0.0 0.00 0.00 0.00 66 1015.5
20260502002002 78 174 0.0 0.0 0.00 0.00 0.00 66 1015.5
20260502001502 78 134 0.0 0.0 0.00 0.00 0.00 66 1015.5
20260502001003 78 129 0.0 0.0 0.00 0.00 0.00 66 1015.4
20260502000600 78 117 0.0 0.0 0.00 0.00 0.00 66 1015.2
20260502000501 78 128 0.0 0.0 0.00 0.00 0.00 66 1015.2
20260502000001 78 129 0.0 0.0 0.00 0.00 0.00 66 1015.2
20260501235603 78 162 0.0 0.0 0.00 0.00 0.00 66 1015.1
20260501235101 78 177 0.0 0.0 0.00 0.00 0.00 65 1015.1
20260501234603 78 131 0.0 0.0 0.00 0.00 0.00 65 1015.2
20260501234100 79 135 0.0 0.0 0.00 0.00 0.00 65 1015.1
20260501233600 79 91 0.0 0.0 0.00 0.00 0.00 65 1015.0
20260501233103 79 91 0.0 0.0 0.00 0.00 0.00 65 1014.9